Location: Nashville
(36.1660°N, 86.7840°W)
Time: 04:14:15
(UTC-05:00)

ZACube-1 - Visible Passes

Search period start: 31 May 2023 00:00
Search period end: 10 June 2023 00:00
Orbit: 576 x 652 km, 97.7° (Epoch: 30 May)

Date Brightness Start Highest point End Pass type
(mag) Time Alt. Az. Time Alt. Az. Time Alt. Az.
31 May ? 03:14:05 10° NE 03:17:38 23° E 03:20:53 11° SE visible
31 May ? 04:49:44 10° NNW 04:53:35 29° WNW 04:57:25 10° SW visible
01 Jun ? 03:29:02 10° NNE 03:33:07 34° E 03:36:28 14° SSE visible
02 Jun ? 03:44:10 10° NNE 03:48:33 51° E 03:52:03 15° S visible
03 Jun ? 03:59:26 10° NNE 04:03:57 78° ESE 04:07:36 15° S visible
04 Jun ? 04:14:49 10° N 04:19:17 70° WNW 04:23:10 14° SSW visible
05 Jun ? 02:56:01 10° ENE 02:58:25 14° E 03:00:49 10° SE visible
05 Jun ? 04:30:18 10° N 04:34:36 46° WNW 04:38:43 11° SW visible
06 Jun ? 03:10:28 10° NE 03:13:54 21° E 03:17:13 10° SE visible
06 Jun ? 04:45:55 10° N 04:49:53 31° WNW 04:53:50 10° SW visible
07 Jun ? 03:25:20 10° NE 03:29:21 31° E 03:32:44 13° SSE visible
08 Jun ? 03:40:23 10° NNE 03:44:44 47° E 03:48:15 15° S visible
09 Jun ? 03:55:35 10° NNE 04:00:06 72° ESE 04:03:45 15° S visible
